CW5066 Weather Reports


time (UTC)temp
F
wind
direction
speed
knots
gust
knots
rain 1hr
in
rain 24hr
in
rain mn
in
humidity
%
barometer
mb
20210302012026 27 0.0 0.0 0.00 0.02 0.02 45 1022.0
20210302011025 28 0.0 0.0 0.00 0.02 0.02 45 1021.8
20210302010028 30 0.0 0.0 0.00 0.02 0.02 40 1022.7
20210302005146 31 0.0 0.0 0.00 0.02 0.02 38 1023.4
20210302004032 33 0.0 0.0 0.00 0.02 0.02 36 1023.4
20210302003433 34 0.0 0.0 0.00 0.02 0.02 34 1024.0
20210302002037 35 0.0 0.0 0.00 0.02 0.02 33 1024.0
20210302001024 36 0.0 0.9 0.00 0.02 0.02 32 1024.8
20210302000033 37 0.0 0.0 0.00 0.02 0.02 33 1024.9
20210301235142 37 135 0.9 1.7 0.00 0.02 0.02 31 1024.9
20210301234022 38 0.0 0.9 0.00 0.02 0.02 31 1025.6
20210301233331 39 135 0.9 3.5 0.00 0.02 0.02 29 1025.8
20210301232025 39 135 0.9 1.7 0.00 0.02 0.02 28 1025.7
20210301231023 40 135 0.9 3.5 0.00 0.02 0.02 28 1025.2
20210301230035 40 135 0.9 2.6 0.00 0.02 0.02 29 1025.4
20210301225109 42 135 0.9 3.5 0.00 0.02 0.02 28 1026.3
20210301224021 42 135 0.9 3.5 0.00 0.02 0.02 25 1027.0
20210301223318 42 135 1.7 5.2 0.01 0.02 0.02 26 1027.2
20210301222029 43 158 0.9 4.3 0.01 0.02 0.02 26 1028.0
20210301221038 43 135 0.9 4.3 0.01 0.02 0.02 25 1028.2
20210301220023 43 68 0.9 6.1 0.01 0.02 0.02 25 1029.6
20210301215132 43 135 2.6 6.1 0.01 0.02 0.02 25 1029.7
20210301214032 44 113 1.7 4.3 0.01 0.02 0.02 23 1029.9
20210301213436 44 135 1.7 5.2 0.00 0.01 0.01 24 1030.8
20210301212041 44 113 1.7 5.2 0.00 0.01 0.01 23 1030.8
20210301211024 43 158 1.7 5.2 0.00 0.01 0.01 26 1030.2
20210301210028 44 135 1.7 6.1 0.00 0.01 0.01 25 1030.4
20210301205217 44 135 0.9 5.2 0.00 0.01 0.01 21 1030.5
20210301204030 43 135 2.6 6.1 0.00 0.01 0.01 21 1030.5
20210301203343 43 135 0.9 4.3 0.00 0.01 0.01 22 1030.6
20210301202021 43 135 1.7 5.2 0.00 0.01 0.01 25 1030.9
20210301201021 43 135 1.7 5.2 0.00 0.01 0.01 25 1031.2
20210301200032 42 113 1.7 5.2 0.00 0.01 0.01 25 1031.5
20210301195206 43 135 1.7 5.2 0.01 0.01 0.01 26 1031.7
20210301194027 42 135 2.6 6.1 0.01 0.01 0.01 26 1031.2
20210301193303 41 90 1.7 3.5 0.01 0.01 0.01 28 1031.3
20210301192030 41 90 1.7 7.8 0.01 0.01 0.01 27 1031.5
20210301191020 41 68 1.7 5.2 0.01 0.01 0.01 28 1031.7
20210301190040 41 135 1.7 5.2 0.01 0.01 0.01 29 1032.0
20210301185051 41 203 0.9 5.2 0.00 0.00 0.00 30 1032.9
20210301184019 39 68 1.7 3.5 0.00 0.00 0.00 31 1031.7
20210301183539 39 68 1.7 4.3 0.00 0.00 0.00 30 1032.5
20210301182631 39 135 1.7 6.1 0.00 0.00 0.00 32 1032.0
20210301181520 39 135 1.7 6.1 0.00 0.00 0.00 31 1032.1
20210301180530 38 90 2.6 6.1 0.00 0.00 0.00 30 1032.1
20210301175523 38 158 1.7 2.6 0.00 0.00 0.00 31 1032.3
20210301174526 38 135 1.7 4.3 0.00 0.00 0.00 31 1032.3
20210301173525 36 68 1.7 4.3 0.00 0.00 0.00 31 1031.7
20210301172538 36 68 0.9 1.7 0.00 0.00 0.00 34 1031.8
20210301171527 36 90 1.7 3.5 0.00 0.00 0.00 32 1031.7
20210301170524 35 68 1.7 5.2 0.00 0.00 0.00 33 1031.2
20210301165528 35 90 1.7 6.1 0.00 0.00 0.00 32 1031.9
20210301164522 35 113 1.7 4.3 0.00 0.00 0.00 34 1031.3
20210301163539 35 135 1.7 4.3 0.00 0.00 0.00 33 1031.3
20210301162645 35 90 0.9 1.7 0.00 0.00 0.00 34 1031.2
20210301161524 34 90 0.9 1.7 0.00 0.00 0.00 34 1030.6
20210301160547 33 90 0.9 3.5 0.00 0.00 0.00 35 1030.6
20210301155521 33 0.0 1.7 0.00 0.00 0.00 35 1030.7
20210301154534 32 0.0 0.9 0.00 0.00 0.00 36 1030.3
20210301153545 30 0.0 0.9 0.00 0.00 0.00 39 1029.7
20210301152823 28 0.0 0.0 0.00 0.00 0.00 41 1029.0
20210301151529 27 0.0 0.0 0.00 0.00 0.00 42 1028.3
20210301150522 24 0.0 0.9 0.00 0.00 0.00 44 1027.7
20210301145521 22 68 2.6 3.5 0.00 0.00 0.00 47 1027.0
20210301144523 21 68 0.9 3.5 0.00 0.00 0.00 49 1026.2
20210301143523 19 0.0 0.0 0.00 0.00 0.00 51 1025.3
20210301142741 19 0.0 1.7 0.00 0.00 0.00 51 1025.3
20210301141526 17 0.0 0.0 0.00 0.00 0.00 56 1024.7
20210301140540 14 0.0 0.9 0.00 0.00 0.00 59 1024.0
20210301135553 13 0.0 0.9 0.00 0.00 0.00 62 1023.9
20210301134540 11 0.0 0.0 0.00 0.00 0.00 64 1023.0
20210301133525 11 0.0 0.0 0.00 0.00 0.00 63 1022.9
20210301132531 11 0.0 0.0 0.00 0.00 0.00 63 1022.9
20210301131700 11 0.0 0.0 0.00 0.00 0.00 62 1022.8
20210301130525 11 0.0 0.0 0.00 0.00 0.00 63 1022.9
20210301125526 11 0.0 0.0 0.00 0.00 0.00 62 1022.8
20210301124534 11 0.0 0.0 0.00 0.00 0.00 63 1022.8
20210301123521 11 0.0 3.5 0.00 0.00 0.00 63 1022.8
20210301122652 10 0.0 0.0 0.00 0.00 0.00 64 1022.6
20210301121543 11 0.0 0.0 0.00 0.00 0.00 63 1022.5
20210301120542 11 0.0 0.0 0.00 0.00 0.00 62 1022.5
20210301115535 11 0.0 0.0 0.00 0.00 0.00 63 1022.4
20210301114526 11 0.0 0.9 0.00 0.00 0.00 63 1022.4
20210301113531 9 0.0 0.0 0.00 0.00 0.00 64 1022.1
20210301112751 9 0.0 0.0 0.00 0.00 0.00 66 1022.1
20210301111535 8 0.0 0.0 0.00 0.00 0.00 66 1022.1
20210301110537 8 0.0 0.0 0.00 0.00 0.00 66 1021.7
20210301105524 8 0.0 0.0 0.00 0.00 0.00 65 1022.4
20210301104527 9 0.0 0.0 0.00 0.00 0.00 64 1023.0
20210301103523 8 0.0 0.0 0.00 0.00 0.00 63 1022.4
20210301102630 9 0.0 0.9 0.00 0.00 0.00 61 1023.2
20210301101544 10 0.0 0.0 0.00 0.00 0.00 60 1023.3
20210301100528 10 0.0 0.0 0.00 0.00 0.00 53 1023.8
20210301095521 14 315 0.9 6.1 0.00 0.00 0.00 53 1025.3
20210301094523 14 315 0.9 6.1 0.00 0.00 0.00 52 1025.4
20210301093526 14 315 2.6 8.7 0.00 0.00 0.00 52 1024.8
20210301092703 14 293 1.7 7.8 0.00 0.00 0.00 52 1025.0
20210301091544 14 0.0 3.5 0.00 0.00 0.00 52 1025.1
20210301090522 13 0.0 4.3 0.00 0.00 0.00 52 1025.1
20210301085528 13 293 0.9 6.1 0.00 0.00 0.00 53 1025.1
20210301084521 13 0.0 4.3 0.00 0.00 0.00 52 1025.7
20210301083526 14 338 1.7 7.0 0.00 0.00 0.00 51 1025.7
20210301082659 14 315 3.5 9.6 0.00 0.00 0.00 52 1025.7
20210301081530 14 338 2.6 7.8 0.00 0.00 0.00 51 1025.7
20210301080522 14 315 4.3 9.6 0.00 0.00 0.00 51 1025.6
20210301075521 14 293 0.9 9.6 0.00 0.00 0.00 50 1024.7
20210301074524 14 293 1.7 7.8 0.00 0.00 0.00 50 1024.6
20210301073528 14 293 4.3 10.4 0.00 0.00 0.00 50 1024.4
20210301072608 14 315 0.9 6.1 0.00 0.00 0.00 50 1025.0
20210301071530 14 315 5.2 12.2 0.00 0.00 0.00 49 1024.7
20210301070524 14 315 5.2 13.9 0.00 0.00 0.00 49 1024.6
20210301065534 15 23 5.2 14.8 0.00 0.00 0.00 48 1024.4
20210301064534 15 45 8.7 18.2 0.00 0.00 0.00 47 1024.5
20210301063523 15 45 10.4 20.0 0.00 0.00 0.00 47 1024.4
20210301062602 14 338 8.7 16.5 0.00 0.00 0.00 48 1024.6
20210301061527 14 338 7.0 14.8 0.00 0.00 0.00 48 1022.4
20210301060523 14 338 6.1 11.3 0.00 0.00 0.00 48 1022.4
20210301055532 14 0 5.2 11.3 0.00 0.00 0.00 48 1022.3
20210301054537 14 0 7.0 14.8 0.00 0.00 0.00 47 1022.2
20210301053524 14 338 5.2 10.4 0.00 0.00 0.00 47 1022.2
20210301052636 14 0 6.1 13.0 0.00 0.00 0.00 47 1022.1
20210301051530 14 0 5.2 12.2 0.00 0.00 0.00 45 1022.1
20210301050539 14 23 7.0 15.6 0.00 0.00 0.00 44 1022.1
20210301045520 15 23 9.6 16.5 0.00 0.00 0.00 43 1021.0
20210301044525 14 0 5.2 10.4 0.00 0.00 0.00 42 1020.9
20210301043523 14 0 3.5 12.2 0.00 0.00 0.00 42 1020.1
20210301042556 13 23 1.7 8.7 0.00 0.00 0.00 44 1019.3
20210301041523 13 45 5.2 13.0 0.00 0.00 0.00 45 1019.2
20210301040535 13 0 1.7 8.7 0.00 0.00 0.00 46 1019.2
20210301035518 13 0 2.6 11.3 0.00 0.00 0.00 46 1018.8
20210301034520 13 338 10.4 15.6 0.00 0.00 0.00 46 1017.7
20210301033533 12 315 7.0 12.2 0.00 0.00 0.00 48 1017.6
20210301032621 13 338 5.2 13.0 0.00 0.00 0.00 49 1016.7
20210301031518 12 0 5.2 10.4 0.00 0.00 0.00 50 1016.9
20210301030529 12 0 7.8 16.5 0.00 0.00 0.00 51 1016.8
20210301025524 12 0 8.7 14.8 0.00 0.00 0.00 52 1016.9
20210301024522 13 270 16.5 26.9 0.00 0.00 0.00 49 1016.2
20210301023521 13 270 13.9 20.0 0.00 0.00 0.00 48 1016.1
20210301022713 12 270 13.0 22.6 0.00 0.00 0.00 48 1015.9
20210301021544 12 248 13.0 23.5 0.00 0.00 0.00 47 1016.5
20210301020523 13 270 11.3 20.9 0.00 0.00 0.00 46 1015.9
20210301015523 13 248 12.2 20.9 0.00 0.00 0.00 44 1016.5
20210301014520 13 270 9.6 16.5 0.00 0.00 0.00 43 1016.3
20210301013518 13 270 9.6 17.4 0.00 0.00 0.00 42 1016.0
20210301012536 13 270 9.6 22.6 0.00 0.00 0.00 41 1016.0